Theta_e
334 340 343 345 350 348 345 345 346 347 349 353 355 356 353 350 350 350 350 350 349 348 348 350 352 349 347 347 349 352 357 354 353
335 340 341 346 351 350 347 347 348 349 353 358 358 353 349 349 350 350 349 350 350 348 350 349 352 351 348 345 345 347 344 347 347
336 340 342 348 351 353 355 354 354 355 358 356 352 347 347 346 348 349 349 349 350 350 351 351 352 352 349 347 344 342 344 347 348
336 340 342 347 349 350 354 356 356 355 354 352 349 348 348 348 348 349 351 351 352 352 353 353 353 353 351 350 348 348 345 347 346
339 342 343 345 344 346 348 348 352 353 353 351 351 353 352 349 349 351 352 351 351 351 350 351 351 353 352 352 348 350 348 342 342
340 341 341 339 340 340 345 344 346 346 350 352 351 353 352 351 350 349 347 347 349 349 349 348 348 348 348 351 352 352 348 346 343
339 340 339 338 340 343 346 346 346 348 347 349 351 352 350 348 348 349 347 347 348 348 348 348 348 348 348 348 353 353 351 350 351
337 336 337 337 338 338 345 344 346 347 347 349 350 351 350 349 352 352 349 347 347 349 349 348 349 347 346 346 345 346 346 347 348
335 335 335 334 336 339 337 342 345 344 350 351 350 347 347 350 350 348 347 347 347 347 347 345 344 342 342 341 338 333 334 338 343
335 334 335 335 338 335 337 341 344 343 350 350 344 343 345 347 345 344 345 347 347 346 342 342 340 341 341 340 341 331 330 333 339
334 335 334 334 332 332 335 339 341 346 345 344 344 342 342 344 345 342 346 348 345 343 341 341 340 340 340 340 339 328 326 329 338
334 334 336 335 334 337 340 341 345 345 342 343 342 342 344 345 342 344 343 341 341 341 340 340 339 339 339 338 339 327 324 327 333
334 335 335 336 341 340 342 343 345 343 343 341 342 344 343 344 343 342 340 340 340 341 340 338 337 336 337 333 335 326 322 324 329
332 332 331 332 334 340 339 342 343 341 339 335 337 340 339 336 335 335 335 334 335 335 335 335 335 335 336 335 332 332 320 318 329
326 325 332 333 333 330 336 339 337 331 327 328 330 330 329 328 328 327 326 328 328 327 328 328 329 331 330 331 333 325 322 317 316
328 325 330 331 328 326 326 326 327 323 321 323 324 324 323 323 323 322 323 323 322 320 322 321 321 321 322 323 326 327 320 317 317
327 329 328 325 325 324 321 321 320 319 319 320 320 319 318 318 318 317 319 319 318 317 317 317 317 316 317 319 320 322 325 325 325
327 328 327 326 324 320 318 319 317 317 317 317 316 316 316 316 315 315 316 317 316 315 316 312 312 313 314 314 315 316 310 309 316
329 326 325 322 320 319 317 316 315 315 316 315 314 314 313 312 313 313 313 313 314 310 307 305 302 301 304 313 308 304 301 300 299
320 323 322 320 317 316 315 314 313 314 314 314 313 312 312 312 311 312 311 311 310 309 311 307 303 302 302 302 301 300 298 299 299
Wind_Speed
8 7 5 3 7 8 7 8 10 10 8 6 7 7 8 6 5 2 1 3 4 4 5 7 10 8 5 3 4 6 8 7 8
13 10 5 6 9 10 9 9 10 11 11 10 8 8 8 7 5 4 0 4 6 6 6 6 7 6 3 1 2 5 4 3 4
12 10 6 7 9 10 9 7 7 10 9 10 10 8 6 5 4 3 1 4 6 7 6 7 7 5 4 4 4 3 4 4 4
14 12 10 9 9 10 9 8 7 7 8 10 8 7 7 5 2 1 3 3 4 5 5 7 8 5 4 4 5 7 6 3 4
14 14 13 11 9 9 9 8 6 5 5 6 7 5 5 4 3 2 1 3 5 6 7 7 8 8 5 6 5 9 8 5 5
15 15 16 12 9 9 11 10 8 7 4 4 5 5 6 6 5 4 2 2 3 5 6 7 7 7 7 7 6 8 7 7 5
17 16 17 13 8 9 11 10 9 11 10 4 4 6 7 7 7 6 4 3 2 1 3 5 6 7 7 8 8 8 3 6 9
17 17 16 13 10 7 7 8 6 5 8 5 6 7 8 8 7 7 7 4 2 5 6 5 6 7 8 8 7 5 8 8 6
19 18 17 14 11 9 10 11 9 5 8 6 5 6 5 4 5 5 3 2 1 3 4 6 7 9 9 9 7 9 10 10 8
19 21 19 13 7 6 10 8 7 5 6 7 5 4 4 5 5 6 3 4 4 4 6 7 9 9 9 9 10 8 10 11 9
15 19 16 8 5 7 7 5 5 6 7 6 5 4 4 5 6 4 4 4 4 5 5 7 8 9 8 8 7 7 9 11 9
8 8 8 8 5 8 7 6 5 5 6 6 5 5 5 3 2 3 4 5 6 6 7 8 8 9 9 8 8 8 10 9 10
9 12 7 5 7 7 7 5 6 6 5 3 3 3 4 4 5 5 5 6 8 7 7 9 9 10 10 8 8 9 9 8 9
16 11 8 6 5 3 4 5 7 8 8 8 7 6 6 7 7 6 7 7 7 8 9 10 11 10 10 9 8 10 9 7 9
16 13 14 7 5 4 8 10 10 10 11 8 8 7 7 7 7 6 7 9 8 9 9 11 10 10 9 9 9 9 9 8 8
13 15 8 5 7 10 12 12 9 10 9 8 8 7 8 9 9 9 8 8 9 9 8 9 9 9 10 10 9 9 9 9 8
11 11 10 9 9 12 12 11 11 10 9 8 8 8 8 8 8 9 8 7 7 8 8 9 9 9 10 10 10 9 9 10 11
11 11 10 9 11 11 10 8 9 9 9 10 8 7 7 7 6 8 9 7 7 7 7 7 9 9 10 10 9 8 14 12 12
12 11 10 11 11 10 8 8 9 10 10 9 8 7 7 7 7 7 7 8 8 3 9 11 11 11 8 8 11 11 13 16 17
13 13 12 10 10 9 8 8 8 9 8 7 8 7 8 6 6 7 8 8 9 10 8 7 7 9 11 11 13 14 14 17 15
Wind_Direction
171 171 157 120 103 103 141 176 165 159 154 144 139 149 140 142 148 172 279 308 318 315 331 331 341 341 346 340 207 192 184 192 202
182 173 156 156 113 107 126 153 149 144 145 137 142 141 141 147 143 157 331 322 313 317 321 323 326 339 307 320 170 178 170 195 208
177 154 123 87 82 86 87 82 109 125 134 135 134 134 149 147 139 103 0 311 316 323 331 329 314 306 293 243 222 243 244 214 203
162 138 141 129 110 96 99 104 110 114 130 134 140 147 151 163 116 46 308 311 325 338 353 358 359 319 295 303 260 230 235 236 263
150 143 136 134 119 117 113 101 97 122 140 154 148 144 137 143 163 202 311 349 6 4 9 17 12 21 349 296 252 243 238 229 221
154 143 139 131 117 135 138 139 132 131 141 155 177 178 173 170 171 173 136 41 15 5 4 4 10 15 7 349 318 256 247 244 246
159 153 151 153 149 149 158 158 163 148 132 130 175 210 201 184 172 169 175 203 225 310 357 351 350 353 355 354 352 11 326 272 273
162 159 163 166 176 207 163 137 117 80 94 156 170 212 212 200 183 176 193 188 315 331 334 344 345 341 343 341 336 1 346 339 328
172 162 168 178 201 196 186 156 152 113 111 184 167 216 238 255 243 225 226 254 308 305 317 327 328 333 332 328 323 346 330 329 314
175 166 175 187 191 158 163 159 136 88 135 149 178 207 236 255 280 269 273 274 268 304 321 325 330 329 330 326 319 338 327 332 307
179 175 174 153 142 152 146 148 125 137 152 162 187 198 242 259 251 272 291 286 306 312 315 322 321 315 320 321 319 328 325 334 322
186 155 114 131 144 121 124 131 146 149 157 173 185 219 249 272 354 349 320 311 314 310 305 313 309 304 304 307 308 322 321 335 322
82 57 10 50 73 99 117 138 152 146 147 157 45 35 26 33 14 347 336 334 326 319 307 297 299 295 297 297 292 314 313 332 323
75 46 358 348 345 65 66 128 129 110 88 54 26 32 43 38 24 3 4 344 342 330 318 309 296 294 292 288 299 312 316 319 322
89 58 279 51 72 48 60 79 91 85 63 35 31 30 28 21 8 356 352 342 335 329 323 308 309 308 301 299 311 311 316 316 295
140 142 208 136 123 92 67 62 66 74 46 30 20 16 11 3 357 358 345 338 335 325 325 315 315 311 309 306 311 309 306 296 287
99 124 123 133 119 86 74 60 57 54 34 19 18 15 9 3 353 343 345 339 338 330 330 327 321 319 307 311 311 318 326 336 325
117 114 114 111 95 86 78 69 56 42 34 21 14 5 5 2 350 346 347 345 338 332 333 331 318 316 321 317 320 329 318 309 310
122 119 116 98 96 91 76 62 50 38 31 19 6 4 4 11 348 352 343 334 332 271 254 273 286 293 286 316 293 304 309 302 298
117 114 104 99 93 86 73 65 56 42 27 17 21 15 7 2 355 358 353 350 341 335 335 310 295 306 308 306 302 310 313 313 309